Tracking 19847 objects as of 17-Sep-2019
HD Live streaming from Space Station
objects crossing your sky now

COSMOS 1019

Track COSMOS 1019 now!
10-day predictions
COSMOS 1019 is classified as:


NORAD ID: 10936
Int'l Code: 1978-056G
Perigee: 1,431.3 km
Apogee: 1,494.3 km
Inclination: 74.0 °
Period: 115.0 minutes
Semi major axis: 7833 km
RCS: 0.6903 m2 (medium)
Launch date: June 7, 1978
Source: Commonwealth of Independent States (former USSR) (CIS)
Launch site: PLESETSK MISSILE AND SPACE COMPLEX (PKMTR)
aabbcc
Your satellite tracking list
Your tracking list is empty




NASA's NSSDC Master Catalog

Two Line Element Set (TLE):
1 10936U 78056G   19259.46068873 -.00000010  00000-0  33850-4 0  9998
2 10936  74.0234 281.3258 0040194  64.1270  43.4008 12.52116555886822
Source of the keplerian elements: AFSPC